Weather observations for the past three days for
Orlando International Airport
Imperial (Metric)
Date Time (edt) Wind (mph) Vis. (mi.) Weather Sky Cond. Temperature (ºF) Relative Humidity Wind Chill (°F) Heat Index (°F) Pressure Precipitation (in)
Air Dwpt 6 hour altimeter (in) sea level (mb) 1 hr 3 hr 6 hr
Max. Min.
17 18:53 E 17 10.00 Mostly Cloudy FEW038 BKN300 84 69.1 61% 88 30.01 1016.0
17 17:53 E 16 G 26 10.00 Mostly Cloudy FEW045 BKN300 84.9 68 57% 88 30 1015.7
17 16:53 E 18 10.00 Mostly Cloudy FEW040 BKN300 87.1 68 53% 91 30 1015.9 0.05
17 15:53 E 18 10.00 Mostly Cloudy FEW038 FEW075 BKN300 89.1 71.1 55% 95 30.01 1016.1
17 14:53 E 16 G 24 10.00 Mostly Cloudy SCT033 BKN075 BKN300 84.9 75 72% 93 30.03 1016.7 0.05
17 13:53 E 12 10.00 Light Rain SCT033TCU BKN065 BKN300 82 75 89.1 79 79% 89 30.06 1017.6 0.01 0.01
17 12:53 E 15 G 23 10.00 Mostly Cloudy SCT038 BKN300 89.1 73 59% 97 30.06 1017.8
17 11:53 E 17 G 24 10.00 Mostly Cloudy SCT039 BKN300 87.1 71.1 59% 93 30.07 1018.1
17 10:53 E 17 G 24 10.00 Mostly Cloudy SCT033 BKN300 87.1 71.1 59% 93 30.07 1018.1
17 09:53 E 15 10.00 Mostly Cloudy SCT026 BKN300 84 73 70% 90 30.06 1017.8
17 08:53 E 12 10.00 Mostly Cloudy FEW020 BKN300 82 72 72% 87 30.06 1017.7
17 07:53 E 13 10.00 Partly Cloudy FEW020 SCT300 79 73.9 79 75.9 85% 83 30.05 1017.4
17 06:53 NE 8 10.00 Mostly Cloudy FEW020 BKN280 77 73.9 90% 78 30.04 1017.1
17 05:53 NE 8 10.00 Partly Cloudy FEW020 SCT250 77 73.9 90% 78 30.03 1016.7
17 04:53 NE 8 10.00 A Few Clouds FEW018 77 73.9 90% 78 30.03 1016.6
17 03:53 E 6 10.00 A Few Clouds FEW250 77 73.9 90% 78 30.03 1016.8
17 02:53 NE 7 10.00 A Few Clouds FEW250 78.1 75 90% 81 30.04 1017.1
17 01:53 E 7 10.00 A Few Clouds FEW040 FEW250 78.1 75 84 78.1 90% 81 30.06 1017.7
17 00:53 E 5 10.00 Partly Cloudy FEW040 SCT250 78.1 75 90% 81 30.07 1018.2
16 23:53 E 6 10.00 Fair CLR 79 75 88% 83 30.08 1018.3
16 22:53 E 7 10.00 Mostly Cloudy SCT020 SCT040 BKN250 81 75 82% 87 30.08 1018.3
16 21:53 E 7 10.00 Mostly Cloudy FEW022 FEW180 BKN250 81 73.9 79% 86 30.06 1017.8
16 20:53 E 12 10.00 Mostly Cloudy FEW032 SCT045 BKN250 82 73.9 77% 88 30.05 1017.4
16 19:53 E 13 10.00 Mostly Cloudy FEW032 SCT045 BKN250 84 73.9 93.9 84 72% 91 30.03 1016.7
16 18:53 E 18 G 24 10.00 Mostly Cloudy SCT032 SCT050 BKN250 86 73.9 67% 94 30.01 1016.2
16 17:53 E 18 G 28 10.00 Partly Cloudy SCT037 SCT250 89.1 73.9 61% 98 30 1015.8
16 16:53 NE 15 10.00 Partly Cloudy SCT038 SCT070 SCT250 90 72 56% 97 30 1015.6
16 15:53 E 15 10.00 Partly Cloudy SCT039 SCT100 SCT250 91.9 73.9 56% 102 30.01 1015.9
16 14:53 E 13 G 21 10.00 Partly Cloudy SCT045 SCT250 93 73.9 54% 103 30.01 1016.2
16 13:53 NE 9 10.00 Mostly Cloudy SCT040 BKN250 91.9 73 91.9 80.1 54% 101 30.03 1016.8
16 12:53 Vrbl 3 10.00 Mostly Cloudy SCT038 BKN250 90 73 58% 98 30.05 1017.4
16 11:53 E 6 10.00 Mostly Cloudy FEW036 BKN250 88 73 61% 96 30.06 1017.6
16 10:53 SE 7 10.00 Mostly Cloudy FEW034 BKN250 88 73 61% 96 30.06 1017.7
16 09:53 Vrbl 3 10.00 Mostly Cloudy FEW025 BKN250 84 73 70% 90 30.07 1018.0
16 08:53 Calm 10.00 Mostly Cloudy BKN250 82.9 73 72% 89 30.07 1018.0
16 07:53 Calm 10.00 Mostly Cloudy FEW020 FEW100 BKN250 80.1 75 80.1 75 85% 85 30.05 1017.4
16 06:53 Calm 10.00 Fair FEW020 FEW100 BKN250 CLR 75.9 73.9 94% 75 30.03 1016.8
16 05:53 Calm 10.00 Mostly Cloudy FEW020 FEW100 BKN250 75.9 73.9 94% 75 30.03 1016.6
16 04:53 N 7 10.00 Partly Cloudy SCT250 75 73 94% 73 30.01 1016.1
16 03:53 Calm 10.00 Mostly Cloudy BKN250 75 73 94% 73 30 1015.9
16 02:53 Calm 10.00 Mostly Cloudy BKN250 77 73 88% 78 30 1015.7
16 01:53 Calm 10.00 Mostly Cloudy BKN250 77 73 79 75 88% 78 30 1015.6
16 00:53 S 3 10.00 Mostly Cloudy FEW120 BKN250 75.9 73 91% 76 30.01 1016.1
15 23:53 E 5 10.00 Mostly Cloudy FEW120 BKN250 77 73 88% 78 30.02 1016.3
15 22:53 S 5 10.00 Mostly Cloudy FEW055 FEW120 BKN250 77 72 85% 78 30.01 1016.1
15 21:53 S 3 10.00 Partly Cloudy FEW055 SCT120 SCT250 77 71.1 82% 79 30.01 1016.2
15 20:53 Calm 10.00 Mostly Cloudy SCT120 BKN250 79 71.1 77% 82 29.99 1015.4
15 19:53 NW 5 10.00 Mostly Cloudy FEW025 FEW050 BKN120 79 71.1 91.9 77 77% 82 29.98 1014.9
15 18:53 NW 6 10.00 Mostly Cloudy FEW030 FEW050 BKN080 BKN250 80.1 69.1 69% 83 29.96 1014.5
15 17:53 W 9 10.00 Mostly Cloudy FEW020 SCT050 BKN130 BKN250 77 71.1 82% 79 29.97 1014.7
15 16:53 E 8 10.00 Thunderstorm SCT039CB SCT050 BKN100 82.9 73 72% 89 29.97 1014.6
15 15:53 S 12 10.00 Thunderstorm SCT050CB SCT080 BKN250 91 75 59% 102 29.95 1014.1
15 14:53 SW 14 G 24 10.00 Partly Cloudy SCT045 SCT250 91.9 71.1 51% 99 29.95 1014.0
15 13:53 S 10 10.00 Partly Cloudy FEW040 SCT090 SCT250 91 73 91 78.1 56% 100 29.97 1014.5
15 12:53 SW 10 10.00 Mostly Cloudy BKN040 BKN090 BKN250 88 73 61% 96 29.98 1014.9
15 11:53 S 5 10.00 Mostly Cloudy BKN035 BKN055 BKN250 86 73 65% 93 29.99 1015.4
15 10:53 Calm 10.00 Mostly Cloudy SCT026 SCT095 BKN250 87.1 75 67% 97 29.99 1015.4
15 09:53 Calm 10.00 Partly Cloudy FEW020 SCT250 84 75 74% 92 29.98 1015.1
15 08:53 SE 7 10.00 Partly Cloudy FEW014 FEW100 SCT250 82 75 79% 89 29.97 1014.8
15 07:53 S 3 10.00 Partly Cloudy FEW014 FEW100 SCT250 78.1 75.9 78.1 75 93% 81 29.97 1014.6
15 06:53 SE 3 10.00 Partly Cloudy FEW014 FEW100 SCT250 75.9 75 97% 75 29.95 1013.9
15 05:53 E 5 10.00 Mostly Cloudy BKN250 77 73.9 90% 78 29.93 1013.4
15 04:53 Calm 10.00 Mostly Cloudy BKN250 77 73.9 90% 78 29.92 1013.1
15 03:53 Calm 10.00 Mostly Cloudy FEW018 BKN250 78.1 75 90% 81 29.91 1012.7
15 02:53 S 3 10.00 Mostly Cloudy SCT017 BKN250 77 75 94% 78 29.92 1012.9
15 01:53 Calm 10.00 Overcast FEW025 OVC250 78.1 75 80.1 77 90% 81 29.93 1013.3
15 00:53 Calm 10.00 Overcast FEW027 OVC250 80.1 73.9 82% 85 29.93 1013.2
14 23:53 Calm 10.00 Overcast FEW027 OVC250 79 73.9 85% 83 29.93 1013.5
14 22:53 Calm 10.00 Overcast FEW024 OVC250 80.1 73.9 82% 85 29.93 1013.4
14 21:53 SW 3 10.00 Mostly Cloudy FEW027 SCT070 BKN240 79 73.9 85% 83 29.91 1012.8
14 20:53 SE 5 10.00 Mostly Cloudy FEW065 FEW080 BKN230 79 72 79% 82 29.9 1012.3
14 19:53 SE 3 10.00 Mostly Cloudy FEW032 FEW044 SCT085 BKN230 77 73 93 75.9 88% 78 29.9 1012.4
Date Time (edt) Wind (mph) Vis. (mi.) Weather Sky Cond. Air Dwpt Max. Min. Relative Humidity Wind Chill (°F) Heat Index (°F) altimeter (in) sea level (mb) 1 hr 3 hr 6 hr
6 hour
Temperature (ºF) Pressure Precipitation (in)